Location: Elmsmere
(40.9284°N, 73.8207°W)
Time: 14:13:20
(UTC+00:00)

STARLINK-2715 - Visible Passes

Search period start: 22 October 2021 00:00
Search period end: 01 November 2021 00:00
Orbit: 546 x 548 km, 53.1° (Epoch: 22 October)

Date Brightness Start Highest point End Pass type
(mag) Time Alt. Az. Time Alt. Az. Time Alt. Az.
22 Oct 5.2 09:20:12 19° S 09:22:24 31° SE 09:26:04 10° ENE visible
23 Oct 4.6 09:15:03 35° S 09:16:02 42° SE 09:19:57 10° ENE visible
24 Oct 4.0 09:09:42 57° SE 09:09:42 57° SE 09:13:44 10° ENE visible
24 Oct 4.7 10:45:48 10° W 10:49:25 29° NNW 10:53:03 10° NE visible
25 Oct 4.2 09:04:11 54° ENE 09:04:11 54° ENE 09:07:28 10° NE visible
25 Oct 5.0 10:39:49 10° WNW 10:43:14 25° NNW 10:46:40 10° NE visible
26 Oct 4.8 08:58:33 38° NE 08:58:33 38° NE 09:01:10 10° NE visible
26 Oct 5.2 10:34:10 11° WNW 10:37:04 22° NNW 10:40:18 10° NNE visible
27 Oct 5.4 08:52:48 27° NE 08:52:48 27° NE 08:54:49 10° NE visible
27 Oct 5.3 10:28:25 12° WNW 10:30:55 19° NNW 10:33:56 10° NNE visible
28 Oct 5.8 08:46:58 21° NE 08:46:58 21° NE 08:48:27 10° NE visible
28 Oct 5.5 10:22:35 12° NW 10:24:45 18° NNW 10:27:35 10° NNE visible
29 Oct 6.2 08:41:04 16° NNE 08:41:04 16° NNE 08:42:04 10° NE visible
29 Oct 5.6 10:16:41 13° NW 10:18:37 16° N 10:21:17 10° NNE visible
30 Oct 6.4 08:35:07 13° NNE 08:35:07 13° NNE 08:35:40 10° NE visible
30 Oct 5.7 10:10:43 13° NW 10:12:28 16° N 10:15:01 10° NNE visible
31 Oct 6.7 08:29:08 11° NE 08:29:08 11° NE 08:29:15 10° NE visible
31 Oct 5.7 10:04:44 13° NNW 10:06:20 15° N 10:08:47 10° NE visible
